Previsão horária em Kabachy

Hoje, 18 Junho, Sexta-feira

Tempo Temperatura Precipitação Vento Pressão Humidade
00:00 +19°C° 0 mm 3 m/s 751 mmHg 75%
01:00 +18°C° 0 mm 3 m/s 751 mmHg 75%
02:00 +18°C° 0 mm 3 m/s 751 mmHg 77%
03:00 +17°C° 0 mm 2 m/s 750 mmHg 78%
04:00 +17°C° 0 mm 2 m/s 750 mmHg 80%
05:00 +19°C° 0 mm 2 m/s 750 mmHg 76%
06:00 +21°C° 0 mm 2 m/s 751 mmHg 72%
07:00 +24°C° 0 mm 2 m/s 751 mmHg 68%
08:00 +26°C° 0 mm 2 m/s 751 mmHg 62%
09:00 +28°C° 0 mm 2 m/s 751 mmHg 56%
10:00 +29°C° 0 mm 2 m/s 750 mmHg 50%
11:00 +30°C° 0 mm 3 m/s 750 mmHg 47%
12:00 +31°C° 0 mm 3 m/s 750 mmHg 43%
13:00 +33°C° 0 mm 3 m/s 750 mmHg 40%
14:00 +33°C° 0 mm 3 m/s 750 mmHg 41%
15:00 +33°C° 0 mm 3 m/s 749 mmHg 42%
16:00 +31°C° 0 mm 3 m/s 749 mmHg 44%
17:00 +30°C° 0 mm 3 m/s 749 mmHg 51%
18:00 +28°C° 0 mm 3 m/s 749 mmHg 57%
19:00 +27°C° 0 mm 3 m/s 749 mmHg 64%
20:00 +25°C° 0 mm 3 m/s 749 mmHg 69%
21:00 +24°C° 0 mm 3 m/s 750 mmHg 73%
22:00 +21°C° 0 mm 3 m/s 750 mmHg 78%
23:00 +21°C° 0 mm 3 m/s 750 mmHg 80%

Amanhã, 19 Junho, Sábado

Tempo Temperatura Precipitação Vento Pressão Humidade
00:00 +20°C° 0 mm 2 m/s 750 mmHg 83%
01:00 +19°C° 0 mm 2 m/s 750 mmHg 85%
02:00 +19°C° 0 mm 2 m/s 749 mmHg 87%
03:00 +19°C° 0 mm 2 m/s 749 mmHg 88%
04:00 +18°C° 0 mm 2 m/s 749 mmHg 89%
05:00 +20°C° 0 mm 2 m/s 749 mmHg 84%
06:00 +23°C° 0 mm 2 m/s 749 mmHg 78%
07:00 +24°C° 0 mm 2 m/s 749 mmHg 72%
08:00 +26°C° 0 mm 3 m/s 749 mmHg 66%
09:00 +28°C° 0 mm 3 m/s 749 mmHg 60%
10:00 +29°C° 0 mm 3 m/s 749 mmHg 55%
11:00 +30°C° 0 mm 2 m/s 749 mmHg 51%
12:00 +31°C° 0 mm 2 m/s 749 mmHg 47%
13:00 +32°C° 0 mm 2 m/s 748 mmHg 43%
14:00 +32°C° 0 mm 2 m/s 748 mmHg 43%
15:00 +32°C° 0 mm 2 m/s 748 mmHg 42%
16:00 +33°C° 0 mm 3 m/s 748 mmHg 42%
17:00 +31°C° 0 mm 3 m/s 748 mmHg 50%
18:00 +29°C° 0 mm 3 m/s 748 mmHg 58%
19:00 +27°C° 0 mm 4 m/s 748 mmHg 67%
20:00 +26°C° 0 mm 3 m/s 748 mmHg 71%
21:00 +24°C° 0 mm 3 m/s 748 mmHg 75%
22:00 +22°C° 0 mm 3 m/s 748 mmHg 79%
23:00 +21°C° 0 mm 3 m/s 748 mmHg 82%

Depois de amanhã, 20 Junho, Domingo

Tempo Temperatura Precipitação Vento Pressão Humidade
00:00 +21°C° 0 mm 3 m/s 748 mmHg 85%
01:00 +20°C° 0 mm 3 m/s 748 mmHg 87%
02:00 +20°C° 0 mm 2 m/s 747 mmHg 89%
03:00 +19°C° 0 mm 2 m/s 747 mmHg 90%
04:00 +19°C° 0 mm 2 m/s 747 mmHg 91%
05:00 +20°C° 0 mm 2 m/s 747 mmHg 84%
06:00 +22°C° 0 mm 3 m/s 747 mmHg 78%
07:00 +24°C° 0 mm 3 m/s 747 mmHg 71%
08:00 +26°C° 0 mm 3 m/s 747 mmHg 65%
09:00 +27°C° 0 mm 3 m/s 747 mmHg 58%
10:00 +29°C° 0 mm 4 m/s 747 mmHg 52%
11:00 +30°C° 0 mm 3 m/s 746 mmHg 48%
12:00 +30°C° 0 mm 3 m/s 746 mmHg 45%
13:00 +31°C° 0 mm 3 m/s 746 mmHg 41%
14:00 +31°C° 0 mm 3 m/s 745 mmHg 41%
15:00 +33°C° 0 mm 3 m/s 745 mmHg 42%
16:00 +33°C° 0 mm 3 m/s 745 mmHg 42%
17:00 +30°C° 0 mm 3 m/s 744 mmHg 50%
18:00 +28°C° 0 mm 3 m/s 744 mmHg 58%
19:00 +27°C° 0 mm 3 m/s 744 mmHg 66%
20:00 +26°C° 0 mm 3 m/s 744 mmHg 69%
21:00 +23°C° 0 mm 4 m/s 744 mmHg 73%
22:00 +22°C° 0 mm 4 m/s 744 mmHg 76%
23:00 +21°C° 0 mm 3 m/s 743 mmHg 81%

21 Junho, Segunda-feira

Tempo Temperatura Precipitação Vento Pressão Humidade
00:00 +21°C° 0 mm 3 m/s 743 mmHg 85%
01:00 +20°C° 0 mm 2 m/s 743 mmHg 90%
02:00 +20°C° 0 mm 2 m/s 743 mmHg 91%
03:00 +19°C° 0 mm 2 m/s 743 mmHg 91%
04:00 +19°C° 0 mm 2 m/s 742 mmHg 92%
05:00 +21°C° 0 mm 3 m/s 742 mmHg 85%
06:00 +24°C° 0 mm 3 m/s 742 mmHg 78%
07:00 +26°C° 0 mm 3 m/s 742 mmHg 71%
08:00 +27°C° 0.3 mm 3 m/s 742 mmHg 67%
09:00 +29°C° 0.3 mm 3 m/s 742 mmHg 63%
10:00 +30°C° 0.3 mm 3 m/s 742 mmHg 59%
11:00 +30°C° 0.2 mm 3 m/s 742 mmHg 55%
12:00 +31°C° 0.2 mm 3 m/s 742 mmHg 52%
13:00 +33°C° 0.2 mm 3 m/s 742 mmHg 49%
14:00 +31°C° 0.1 mm 3 m/s 742 mmHg 54%
15:00 +30°C° 0.1 mm 3 m/s 742 mmHg 59%
16:00 +29°C° 0.1 mm 4 m/s 742 mmHg 64%
17:00 +28°C° 0.5 mm 3 m/s 742 mmHg 69%
18:00 +27°C° 0.5 mm 3 m/s 742 mmHg 75%
19:00 +25°C° 0.5 mm 2 m/s 742 mmHg 80%
20:00 +24°C° 0.4 mm 2 m/s 743 mmHg 83%
21:00 +23°C° 0.4 mm 2 m/s 743 mmHg 86%
22:00 +21°C° 0.4 mm 2 m/s 743 mmHg 88%
23:00 +20°C° 0 mm 2 m/s 743 mmHg 89%

22 Junho, Terça-feira

Tempo Temperatura Precipitação Vento Pressão Humidade
00:00 +20°C° 0 mm 2 m/s 743 mmHg 90%
01:00 +19°C° 0 mm 2 m/s 743 mmHg 91%
02:00 +19°C° 0 mm 2 m/s 744 mmHg 93%
03:00 +19°C° 0 mm 2 m/s 744 mmHg 94%
04:00 +18°C° 0 mm 2 m/s 744 mmHg 95%
05:00 +20°C° 0 mm 2 m/s 744 mmHg 90%
06:00 +21°C° 0 mm 3 m/s 745 mmHg 86%
07:00 +22°C° 0 mm 3 m/s 745 mmHg 81%
08:00 +25°C° 0 mm 3 m/s 745 mmHg 74%
09:00 +26°C° 0 mm 3 m/s 745 mmHg 67%
10:00 +27°C° 0 mm 3 m/s 746 mmHg 61%
11:00 +28°C° 0 mm 3 m/s 746 mmHg 57%
12:00 +29°C° 0 mm 3 m/s 746 mmHg 54%
13:00 +30°C° 0 mm 2 m/s 746 mmHg 51%
14:00 +30°C° 0 mm 3 m/s 746 mmHg 51%
15:00 +30°C° 0 mm 3 m/s 746 mmHg 50%
16:00 +30°C° 0 mm 3 m/s 746 mmHg 50%
17:00 +29°C° 0 mm 3 m/s 746 mmHg 57%
18:00 +28°C° 0 mm 3 m/s 746 mmHg 64%
19:00 +26°C° 0 mm 3 m/s 746 mmHg 71%
20:00 +25°C° 0 mm 3 m/s 746 mmHg 75%
21:00 +24°C° 0 mm 3 m/s 746 mmHg 79%
22:00 +22°C° 0 mm 3 m/s 746 mmHg 83%
23:00 +21°C° 0.2 mm 2 m/s 746 mmHg 85%

23 Junho, Quarta-feira

Tempo Temperatura Precipitação Vento Pressão Humidade
00:00 +21°C° 0.2 mm 2 m/s 746 mmHg 87%
01:00 +20°C° 0.2 mm 2 m/s 746 mmHg 89%
02:00 +20°C° 1.6 mm 2 m/s 746 mmHg 91%
03:00 +20°C° 1.6 mm 2 m/s 747 mmHg 93%
04:00 +20°C° 1.6 mm 2 m/s 747 mmHg 95%
05:00 +20°C° 1 mm 2 m/s 747 mmHg 95%
06:00 +21°C° 1 mm 2 m/s 747 mmHg 94%
07:00 +21°C° 1 mm 2 m/s 747 mmHg 94%
08:00 +23°C° 0.3 mm 2 m/s 748 mmHg 88%
09:00 +25°C° 0.3 mm 2 m/s 748 mmHg 82%
10:00 +26°C° 0.3 mm 2 m/s 748 mmHg 77%
11:00 +27°C° 0.3 mm 2 m/s 748 mmHg 72%
12:00 +28°C° 0.3 mm 2 m/s 748 mmHg 67%
13:00 +29°C° 0.3 mm 3 m/s 748 mmHg 63%
14:00 +29°C° 0.3 mm 3 m/s 748 mmHg 64%
15:00 +29°C° 0.3 mm 3 m/s 748 mmHg 65%
16:00 +29°C° 0.3 mm 3 m/s 748 mmHg 66%
17:00 +28°C° 0.1 mm 3 m/s 747 mmHg 71%
18:00 +27°C° 0.1 mm 3 m/s 747 mmHg 77%
19:00 +26°C° 0.1 mm 3 m/s 747 mmHg 82%
20:00 +25°C° 1.2 mm 3 m/s 747 mmHg 86%
21:00 +22°C° 1.2 mm 3 m/s 746 mmHg 89%
22:00 +21°C° 1.2 mm 4 m/s 746 mmHg 93%
23:00 +21°C° 2.9 mm 3 m/s 746 mmHg 94%
Mostrar mais

Necessitamos do seu Consentimento

A Meteoprog e os seus Fornecedores de Serviços podem armazenar e aceder a dados pessoais como cookies, identificadores do dispositivo ou outras tecnologias semelhantes existentes no seu dispositivo e processar estes dados para personalizar conteúdos e anúncios, assim como funcionalidades nas redes sociais e análise de tráfego.

  • Armazenar e/ou aceder a informações no seu dispositivo

    Os cookies, identificadores do dispositivo ou outras informações podem ser armazenados ou acedidos no seu dispositivo, para os fins acima indicados.

  • Anúncios e conteúdos personalizados, medição de anúncios e conteúdos, dados sobre o público-alvo e desenvolvimento de produtos

    Os anúncios e os conteúdos podem ser personalizados com base num perfil. Podem ser adicionados dados adicionais para uma maior personalização dos anúncios e dos conteúdos. A eficácia dos anúncios e dos conteúdos pode ser medida. Podem ser obtidas informações sobre o público que visualizou os anúncios e os conteúdos. Estes dados podem ser usados para desenvolver ou melhorar sistemas, softwares ou a experiência do utilizador.

Ao clicar em "Eu concordo”, permitirá o uso de cookies, identificadores do dispositivo e web beacons mencionados ou outras tecnologias semelhantes. As configurações do navegador do seu dispositivo podem ser alteradas.

Para certos fins, podem ser invocados interesses legítimos ao invés de consentimento. Pode ler mais informação sobre este assunto na nossa Política de Privacidade e Cookies.